Location: Hicks
(37.9226°N, 89.9954°W)
Time: 08:56:09
(UTC+00:00)

USA 290 - Pass Details

Date: 14 December 2025
Orbit: 396 x 415 km, 73.6° (Epoch: 30 October)

Event Time Altitude Azimuth Distance (km) Brightness Sun altitude
Rises 12:01:45 0° 181° (S) 2,299 6.3 -12.7°
Reaches altitude 10° 12:03:51 10° 173° (S) 1,448 5.3 -12.3°
Maximum altitude 12:06:48 36° 104° (ESE) 658 4.0 -11.8°
Drops below altitude 10° 12:09:47 10° 36° (NE) 1,467 5.2 -11.2°
Sets 12:11:55 0° 28° (NNE) 2,334 6.1 -10.9°
